BRITE-PL

Last updated on Thu Mar 15 2018 21:46:21 GMT+0000 (Coordinated Universal Time)

1 39431U 13066R 18073.86131820 .00000089 00000-0 29414-4 0 9995 2 39431 97.7463 33.1698 0202568 358.6008 1.4594 14.46916037227590
UTC large
Height (km)
Speed (km/s)
/
Latitude / Longitude
Inclination (degrees)
Orbital Period (minutes)
Azimuth
Elevation
Range (km)
Doppler Factor

Next 0 passes for location: London (51.5072 / 0.1276)

Sorry there are no passes over London.